Flag for U.S.A. Weather past 2 weeks in West Palm Beach, Florida, U.S.A.

Now
61 °F

Passing clouds.


Feels Like: 61 °F
Forecast: 64 / 79 °F
Wind: 9 mph from Northwest

Location: Palm Beach International Airport


UV Index: 5 (Moderate)

Visibility: 10 mi


Pressure: 29.99 "Hg

Humidity: 90%

Dew point: 58 °F

Location of West Palm BeachLocation

Historic Weather in West Palm Beach

°F

West Palm Beach temperature yesterday

Maximum temperature yesterday: 77 °F (at 4:53 PM)
Minimum temperature yesterday: 64 °F (at 1:53 AM)
Average temperature yesterday: 70 °F

Past Weeks' High & Low Weather Summary

 TemperatureHumidityPressure
High91 °F (Apr 8, 1:53 PM)94% (Apr 16, 1:53 AM)30.26 "Hg (Apr 16, 1:53 AM)
Low61 °F (Apr 10, 4:53 AM)32% (Apr 10, 10:53 AM)29.75 "Hg (Apr 8, 3:53 PM)
Average76 °F70%30.01 "Hg
* Reported Apr 6 4:53 AM — Apr 21 4:53 AM, West Palm Beach, Weather by CustomWeather, © 2014

Note: Actual official high and low records may vary slightly from our data, if they occured in-between our weather recording intervals... More about our weather records

Advertising

Historic Weather Conditions — Data for Previous 24 hours

 ConditionsComfort  
Time TempWeatherWind HumidityBarometerVisibility
4:53 AM
Apr 21
62 °FPassing clouds.8 mph86%29.99 "Hg10 mi
3:53 AM62 °FPassing clouds.9 mph86%29.99 "Hg10 mi
2:53 AM63 °FPassing clouds.9 mph84%30.00 "Hg10 mi
1:53 AM64 °FPassing clouds.10 mph84%30.01 "Hg10 mi
12:53 AM67 °FPassing clouds.9 mph79%30.03 "Hg10 mi
12:00 AM68 °FPassing clouds.10 mph76%30.04 "Hg10 mi
10:53 PM
Apr 20
67 °FPassing clouds.6 mph79%30.03 "Hg10 mi
9:53 PM68 °FPassing clouds.9 mph76%30.03 "Hg10 mi
8:53 PM69 °FPassing clouds.8 mph73%30.02 "Hg10 mi
7:53 PM70 °FScattered clouds.10 mph73%30.00 "Hg10 mi
6:53 PM73 °FPartly sunny.12 mph64%29.98 "Hg10 mi
5:53 PM75 °FPartly sunny.12 mph62%29.98 "Hg10 mi
4:53 PM77 °FBroken clouds.10 mph56%29.98 "Hg10 mi
3:53 PM75 °FMostly cloudy.7 mph62%29.98 "Hg10 mi
2:53 PM76 °FMostly cloudy.10 mph58%30.00 "Hg10 mi
1:53 PM75 °FOvercast.8 mph58%30.00 "Hg10 mi
12:53 PM74 °FPartly sunny.8 mph57%30.01 "Hg10 mi
11:53 AM72 °FPartly sunny.9 mph61%30.03 "Hg10 mi
10:53 AM70 °FPartly sunny.8 mph71%30.02 "Hg10 mi
9:53 AM70 °FPartly sunny.12 mph66%30.01 "Hg10 mi
8:53 AM67 °FPartly sunny.9 mph66%30.00 "Hg10 mi
7:53 AM66 °FPartly sunny.10 mph70%30.00 "Hg10 mi
6:53 AM65 °FOvercast.13 mph70%29.97 "Hg10 mi
Weather by CustomWeather, © 2014

See weather overview